TIROS 6 DEB, 29006

Orbit data source: Space-Track

TIROS 6 DEB, 29006 is space debris in LEO originally from a launch on Tue, 18 Sep 1962 UTC launched from the Air Force Eastern Test Range (AFETR). Debris objects in space refer to the collection of defunct objects orbiting the Earth. Examples of debris include non-operational satellites, rocket bodies, and fragments generated from explosions, collisions, or faulty payload assembly.

Loading next visibility...
TIROS 6 DEB details
Identifier
29006, 1962-047F
Orbit
LEO
Last TLE update3 days ago
Origin
Flag of USGSFC (US)
ManufacturerUnknown
MissionSpacecraft
Bus & MotorUnknown
MassUnknown
Launch date (UTC)
1962-09-18 (62 years ago)
Launch vehicleUnknown
Launch site
Air Force Eastern Test Range (AFETR)
Object type
Payload
Rocket body
Debris
Shape & HBRUnknown
Radar Cross SectionSmall (<0.1 m²)

Expand to show TLE details & history

TLE from 3 days ago
0 TIROS 6 DEB
1 29006U 62047F   25012.24833945  .00001156  00000-0  16044-3 0  9995
2 29006  58.3085 198.0336 0011110  37.2585 322.9227 14.84588787624236
Epoch: 2025-01-12T05:57Z
Definitive object data (Epoch: 2025-01-12T05:57:36.528Z)
Latitude0.00001°
Longitude-3.35506°
Altitude610.089 km
Speed7.558 km/s
True Right ascension13h 12m 08s
True Declination0° 00' 00"
Sunlit
Object was in daylight at TLE epoch
Visualization TLE readout
Latitude-57.36785°
Longitude-88.06936°
Altitude639.619 km
Speed7.536 km/s
Apparent Right ascension14h 00m 37s
Apparent Declination-74° 55' 36"
Sunlit
Object is in daylight
Visualization observer readout
Local Sidereal Time05:21:34
Azimuth162.496° S
Elevation-48.346°
Doppler factor1
Orbital elements
Apogee altitude622.108 km
Perigee altitude606.571 km
Semi-major axis6,992.476 km
Eccentricity0.001111
Inclination58.3085°
RAAN198.0336°
Arg. of periapsis37.2585°
True anomaly322.84586°
Mean anomaly322.9227°
Eccentric anomaly322.88429°
Mean motion3.7119 °/min
BSTAR0.00016044
Orbital period96.99 mins
Loading maneuver chart data...
Loading historical data...
Loading historical data...
Loading historical data...
Loading historical data...
Loading historical data...
Loading historical data...
Loading historical data...

TIROS 6 DEB Visibility forecast

Observer location: undefined°, undefined

Span
Click to sort rows by Start time (UTC) header in descending order
Start Az.
Max El. time (UTC)
Max El. Az.
Max El.
End time (UTC)
End Az.
8 mins2025-01-15 13:17:28.610Z203.53° SW2025-01-15 13:21:28.610Z131.812° SE39.179°2025-01-15 13:25:28.610Z51.18° ENE
5 mins2025-01-15 15:00:28.610Z290.379° WNW2025-01-15 15:02:28.610Z328.573° NNW21.657°2025-01-15 15:05:28.610Z15.53° NNE
5 mins2025-01-15 20:07:28.610Z3.789° NNE2025-01-15 20:09:28.610Z41.492° NE20.545°2025-01-15 20:12:28.610Z84.932° E
6 mins2025-01-15 21:47:28.610Z304.507° NW2025-01-15 21:49:28.610Z262.612° W39.988°2025-01-15 21:53:28.610Z154.8° SSE
|